Regional Weather Roundup
Issued by NWS

Home | Current Version | Previous Version | Graphics & Text | Print | Product List | Glossary On
Versions: 1 2 3 4 5 6 7 8 9 10 11 12 13 14 15 16 17 18 19 20 21 22 23 24 25 26 27 28 29 30 31 32 33 34 35 36 37 38 39 40 41 42 43 44 45 46 47 48 49 50
272
ASUS44 KLIX 161610
RWRLA
LOUISIANA WEATHER ROUNDUP
NATIONAL WEATHER SERVICE NEW ORLEANS LA
1100 AM CDT WED APR 16 2014

NOTE: "FAIR" INDICATES FEW OR NO CLOUDS BELOW 12,000 FEET WITH NO
      SIGNIFICANT WEATHER AND/OR OBSTRUCTIONS TO VISIBILITY.
      SKY/WX - SKY CONDITION AND SIGNIFICANT WEATHER.
      TMP - AIR TEMPERATURE.    DP   - DEWPOINT TEMPERATURE.
      RH  - RELATIVE HUMIDITY.  PRES - PRESSURE.
      HX  - HEAT INDEX.         WCI  - WIND CHILL INDEX.

*  THESE STATIONS ARE NOT NWS OR FAA STATIONS AND ARE NOT UNDER
   NWS QUALITY CONTROL.

LAZ040-048-061>063-065-066-069-161700-
SOUTHEAST LOUISIANA

CITY           SKY/WX    TMP DP  RH WIND       PRES   REMARKS
N.O. AUDUBON     N/A     58  37  45 MISG        N/A
N.O. INTL ARPT MOSUNNY   57  41  55 NE7G16    30.24S
N.O. LAKEFRONT SUNNY     56  39  53 E13       30.25F
N.O. DOWNTOWN* FAIR      57  36  44 NE10G20   30.25S
SLIDELL        SUNNY     54  30  40 SE8       30.25F
BATON ROUGE    SUNNY     56  31  38 E8G17     30.26F
BOOTHVILLE     PTSUNNY   58  44  60 NE10      30.23S
BELLE CHASSE   MOSUNNY   58  39  49 E12       30.23F
BOGALUSA*        N/A     55  31  39 E6        30.28S
GALLIANO*      PTSUNNY   61  43  51 NE8G16    30.23S
NEW ROADS*     FAIR      53  32  43 E7        30.26F
GONZALES*      FAIR      56  37  47 E5        30.25S
HAMMOND*       SUNNY     55  28  35 E7        30.27F
HOUMA*         MOSUNNY   59  39  47 NE9       30.23S
PORT FOURCHON* MOSUNNY   59  43  55 E9        30.23S

$$

LAZ041-044-053-054-161700-
SOUTHWEST LOUISIANA

CITY           SKY/WX    TMP DP  RH WIND       PRES   REMARKS
LAKE CHARLES   SUNNY     56  38  50 E14G21    30.24R
LAFAYETTE      SUNNY     56  37  49 E7        30.24S
PATTERSON      SUNNY     57  37  47 E10       30.27S
SALT POINT       N/A     60  40  47 E8        30.23R
NEW IBERIA     SUNNY     58  37  45 SE9       30.25S
CHENAULT AIRPK SUNNY     55  36  47 E12       30.25R

$$

LAZ027-028-161700-
CENTRAL LOUISIANA

CITY           SKY/WX    TMP DP  RH WIND       PRES   REMARKS
FORT POLK      SUNNY     54  30  40 S6G18     30.24R
ALEXANDRIA INT SUNNY     54  34  46 SE9       30.24S
ALEXANDRIA     SUNNY     56  29  35 S9        30.25S

$$

LAZ001-002-161700-
NORTHWEST LOUISIANA

CITY           SKY/WX    TMP DP  RH WIND       PRES   REMARKS
SHREVEPORT     MOSUNNY   56  30  37 SE14G20   30.24S
BARKSDALE AFB  SUNNY     54  30  40 S13       30.24S
DTN SHREVEPORT SUNNY     53  32  44 SE10G20   30.25S

$$

LAZ014-016-161700-
NORTHEAST LOUISIANA

CITY           SKY/WX    TMP DP  RH WIND       PRES   REMARKS
MONROE         SUNNY     52  30  43 SE8       30.28S
TALLULAH       SUNNY     50  30  46 SE10      30.27F

$$




USA.gov is the U.S. government's official web portal to all federal, state and local government web resources and services.